| time (UTC) | temp F | wind direction | speed knots | gust knots | rain 1hr in | rain 24hr in | rain mn in | humidity % | barometer mb |
| 20260507040034 | 63 | 0 | 0.0 | 2.6 | 0.00 | 0.08 | 0.00 | 88 | 1009.7 |
| 20260507034535 | 64 | 289 | 0.9 | 3.5 | 0.00 | 0.08 | 0.08 | 90 | 1009.7 |
| 20260507033034 | 65 | 0 | 0.9 | 4.3 | 0.00 | 0.08 | 0.08 | 89 | 1009.4 |
| 20260507031530 | 65 | 0 | 0.0 | 0.9 | 0.00 | 0.08 | 0.08 | 90 | 1009.5 |
| 20260507030032 | 64 | 0 | 0.0 | 0.0 | 0.00 | 0.08 | 0.08 | 90 | 1009.2 |
| 20260507024533 | 65 | 0 | 0.0 | 0.0 | 0.00 | 0.08 | 0.08 | 89 | 1008.9 |
| 20260507023030 | 65 | 0 | 0.0 | 0.0 | 0.00 | 0.08 | 0.08 | 88 | 1009.1 |
| 20260507021533 | 65 | 0 | 0.0 | 0.0 | 0.00 | 0.08 | 0.08 | 88 | 1008.8 |
| 20260507020040 | 65 | 0 | 0.0 | 1.7 | 0.00 | 0.08 | 0.08 | 88 | 1009.3 |
| 20260507014533 | 65 | 232 | 0.0 | 0.9 | 0.00 | 0.08 | 0.08 | 88 | 1009.4 |
| 20260507013031 | 65 | 0 | 0.0 | 0.9 | 0.00 | 0.08 | 0.08 | 88 | 1009.4 |
| 20260507011532 | 65 | 0 | 0.0 | 0.9 | 0.00 | 0.08 | 0.08 | 88 | 1009.1 |
| 20260507010037 | 65 | 0 | 0.0 | 0.9 | 0.00 | 0.08 | 0.08 | 87 | 1009.1 |
| 20260507004534 | 66 | 0 | 0.0 | 1.7 | 0.00 | 0.08 | 0.08 | 86 | 1008.8 |
| 20260507003032 | 66 | 0 | 0.0 | 0.9 | 0.00 | 0.08 | 0.08 | 86 | 1008.9 |
| 20260507001537 | 66 | 146 | 0.0 | 2.6 | 0.00 | 0.08 | 0.08 | 87 | 1009.1 |
| 20260507000030 | 66 | 205 | 0.0 | 0.9 | 0.00 | 0.08 | 0.08 | 86 | 1008.6 |
| 20260506234531 | 67 | 269 | 0.0 | 2.6 | 0.00 | 0.08 | 0.08 | 85 | 1008.4 |
| 20260506233033 | 67 | 241 | 0.0 | 2.6 | 0.00 | 0.08 | 0.08 | 84 | 1008.4 |
| 20260506231530 | 68 | 0 | 0.0 | 3.5 | 0.00 | 0.08 | 0.08 | 83 | 1008.4 |
| 20260506230032 | 68 | 0 | 0.9 | 3.5 | 0.00 | 0.08 | 0.08 | 83 | 1008.5 |
| 20260506224533 | 69 | 0 | 0.0 | 5.2 | 0.00 | 0.08 | 0.08 | 82 | 1008.6 |
| 20260506223033 | 70 | 256 | 0.9 | 4.3 | 0.00 | 0.08 | 0.08 | 80 | 1008.5 |
| 20260506221529 | 70 | 105 | 0.9 | 5.2 | 0.00 | 0.08 | 0.08 | 80 | 1008.3 |
| 20260506220036 | 70 | 240 | 1.7 | 7.8 | 0.00 | 0.08 | 0.08 | 79 | 1008.2 |
| 20260506214531 | 70 | 277 | 1.7 | 6.1 | 0.00 | 0.08 | 0.08 | 79 | 1008.2 |
| 20260506213034 | 70 | 245 | 1.7 | 5.2 | 0.00 | 0.08 | 0.08 | 79 | 1008.0 |
| 20260506211534 | 70 | 272 | 1.7 | 7.0 | 0.00 | 0.08 | 0.08 | 80 | 1008.1 |
| 20260506210033 | 70 | 297 | 1.7 | 4.3 | 0.00 | 0.08 | 0.08 | 78 | 1008.1 |
| 20260506204531 | 70 | 264 | 2.6 | 7.8 | 0.00 | 0.08 | 0.08 | 78 | 1008.0 |
| 20260506203033 | 70 | 235 | 3.5 | 6.1 | 0.00 | 0.08 | 0.08 | 78 | 1007.9 |
| 20260506201532 | 69 | 149 | 2.6 | 6.1 | 0.00 | 0.08 | 0.08 | 79 | 1007.9 |
| 20260506200033 | 70 | 172 | 3.5 | 10.4 | 0.00 | 0.08 | 0.08 | 78 | 1008.0 |
| 20260506194532 | 70 | 283 | 2.6 | 7.0 | 0.00 | 0.08 | 0.08 | 81 | 1008.1 |
| 20260506193033 | 69 | 282 | 1.7 | 7.0 | 0.00 | 0.08 | 0.08 | 80 | 1008.2 |
| 20260506191535 | 68 | 276 | 3.5 | 9.6 | 0.00 | 0.08 | 0.08 | 82 | 1008.5 |
| 20260506190033 | 67 | 323 | 2.6 | 9.6 | 0.00 | 0.08 | 0.08 | 83 | 1008.8 |
| 20260506184533 | 66 | 227 | 2.6 | 8.7 | 0.00 | 0.08 | 0.08 | 84 | 1008.7 |
| 20260506183032 | 66 | 209 | 1.7 | 10.4 | 0.00 | 0.08 | 0.08 | 84 | 1008.9 |
| 20260506181533 | 66 | 265 | 2.6 | 9.6 | 0.00 | 0.08 | 0.08 | 84 | 1008.9 |
| 20260506180036 | 65 | 282 | 1.7 | 10.4 | 0.00 | 0.08 | 0.08 | 85 | 1009.0 |
| 20260506174535 | 65 | 237 | 2.6 | 8.7 | 0.00 | 0.08 | 0.08 | 85 | 1009.1 |
| 20260506173032 | 65 | 195 | 2.6 | 9.6 | 0.00 | 0.08 | 0.08 | 85 | 1009.0 |
| 20260506171549 | 66 | 212 | 2.6 | 7.0 | 0.00 | 0.08 | 0.08 | 86 | 1009.2 |
| 20260506170037 | 64 | 143 | 0.0 | 5.2 | 0.01 | 0.08 | 0.08 | 89 | 1009.2 |
| 20260506164535 | 63 | 296 | 0.9 | 6.1 | 0.03 | 0.08 | 0.08 | 89 | 1009.3 |
| 20260506163040 | 64 | 284 | 1.7 | 6.1 | 0.05 | 0.08 | 0.08 | 90 | 1009.4 |
| 20260506161532 | 64 | 272 | 1.7 | 7.0 | 0.06 | 0.08 | 0.08 | 91 | 1009.7 |
| 20260506160033 | 63 | 201 | 1.7 | 5.2 | 0.06 | 0.07 | 0.07 | 90 | 1009.6 |
| 20260506154534 | 63 | 181 | 0.9 | 5.2 | 0.05 | 0.05 | 0.05 | 87 | 1010.2 |
| 20260506153028 | 64 | 242 | 0.9 | 7.8 | 0.03 | 0.03 | 0.03 | 85 | 1010.7 |
| 20260506151536 | 64 | 181 | 1.7 | 8.7 | 0.02 | 0.02 | 0.02 | 84 | 1010.6 |
| 20260506150033 | 65 | 228 | 2.6 | 7.0 | 0.01 | 0.01 | 0.01 | 82 | 1010.4 |
| 20260506144530 | 66 | 141 | 2.6 | 7.8 | 0.00 | 0.00 | 0.00 | 77 | 1010.5 |
| 20260506143032 | 67 | 272 | 2.6 | 8.7 | 0.00 | 0.00 | 0.00 | 75 | 1010.6 |
| 20260506141533 | 67 | 245 | 1.7 | 12.2 | 0.00 | 0.00 | 0.00 | 74 | 1010.6 |
| 20260506140034 | 67 | 182 | 2.6 | 8.7 | 0.00 | 0.00 | 0.00 | 73 | 1010.5 |
| 20260506134532 | 68 | 208 | 3.5 | 9.6 | 0.00 | 0.00 | 0.00 | 71 | 1010.4 |
| 20260506133042 | 69 | 255 | 4.3 | 10.4 | 0.00 | 0.00 | 0.00 | 69 | 1010.1 |
| 20260506131531 | 68 | 293 | 1.7 | 8.7 | 0.00 | 0.00 | 0.00 | 72 | 1010.2 |
| 20260506130030 | 67 | 245 | 2.6 | 7.0 | 0.00 | 0.00 | 0.00 | 72 | 1010.3 |
| 20260506124532 | 67 | 174 | 1.7 | 10.4 | 0.00 | 0.00 | 0.00 | 74 | 1010.5 |
| 20260506123032 | 66 | 276 | 1.7 | 7.8 | 0.00 | 0.00 | 0.00 | 74 | 1010.5 |
| 20260506121531 | 66 | 233 | 1.7 | 8.7 | 0.00 | 0.00 | 0.00 | 75 | 1010.4 |
| 20260506120037 | 66 | 223 | 2.6 | 8.7 | 0.00 | 0.00 | 0.00 | 76 | 1010.3 |
| 20260506114531 | 66 | 223 | 2.6 | 8.7 | 0.00 | 0.00 | 0.00 | 76 | 1010.4 |
| 20260506113040 | 65 | 217 | 1.7 | 7.0 | 0.00 | 0.00 | 0.00 | 79 | 1010.0 |
| 20260506111529 | 65 | 143 | 2.6 | 7.8 | 0.00 | 0.00 | 0.00 | 79 | 1010.0 |
| 20260506110033 | 64 | 221 | 1.7 | 7.0 | 0.00 | 0.00 | 0.00 | 80 | 1010.1 |
| 20260506104537 | 65 | 186 | 1.7 | 4.3 | 0.00 | 0.00 | 0.00 | 80 | 1009.9 |
| 20260506103037 | 64 | 259 | 1.7 | 6.1 | 0.00 | 0.00 | 0.00 | 80 | 1010.1 |
| 20260506101544 | 64 | 221 | 0.9 | 5.2 | 0.00 | 0.00 | 0.00 | 81 | 1010.3 |
| 20260506100033 | 64 | 334 | 1.7 | 7.8 | 0.00 | 0.00 | 0.00 | 81 | 1010.1 |
| 20260506094529 | 63 | 210 | 1.7 | 6.1 | 0.00 | 0.00 | 0.00 | 82 | 1009.9 |
| 20260506093028 | 63 | 195 | 0.9 | 4.3 | 0.00 | 0.00 | 0.00 | 82 | 1010.2 |
| 20260506091532 | 64 | 188 | 1.7 | 8.7 | 0.00 | 0.00 | 0.00 | 81 | 1010.2 |
| 20260506090033 | 64 | 150 | 0.9 | 4.3 | 0.00 | 0.00 | 0.00 | 81 | 1010.1 |
| 20260506084538 | 64 | 226 | 0.9 | 8.7 | 0.00 | 0.00 | 0.00 | 80 | 1010.1 |
| 20260506083033 | 65 | 229 | 2.6 | 6.1 | 0.00 | 0.00 | 0.00 | 80 | 1009.9 |
| 20260506081533 | 65 | 236 | 1.7 | 6.1 | 0.00 | 0.00 | 0.00 | 79 | 1010.1 |
| 20260506073029 | 66 | 271 | 1.7 | 6.1 | 0.00 | 0.00 | 0.00 | 77 | 1010.4 |
| 20260506071528 | 67 | 145 | 2.6 | 7.8 | 0.00 | 0.00 | 0.00 | 77 | 1010.2 |
| 20260506061531 | 67 | 269 | 1.7 | 6.1 | 0.00 | 0.00 | 0.00 | 75 | 1010.5 |
| 20260506044530 | 68 | 257 | 2.6 | 5.2 | 0.00 | 0.00 | 0.00 | 75 | 1010.9 |
| 20260506043030 | 68 | 172 | 0.9 | 5.2 | 0.00 | 0.00 | 0.00 | 73 | 1011.1 |
| 20260506041533 | 68 | 251 | 1.7 | 5.2 | 0.00 | 0.00 | 0.00 | 71 | 1011.0 |